Weather History for Cleveland Burke, OH

Change the Weather History Date:

Tuesday, June 25, 2013

  Actual Average Record
Temperature  
Mean Temperature 80 °F -  
Max Temperature 89 °F 78 °F 96 °F (1997)
Min Temperature 70 °F 64 °F 57 °F (2004)
Cooling Degree Days 14    
Growing Degree Days 30 (Base 50)    
Moisture  
Dew Point 68 °F    
Average Humidity 78    
Maximum Humidity 94    
Minimum Humidity 48    
Precipitation  
Precipitation 1.13 in - - ()
Sea Level Pressure  
Sea Level Pressure 29.91 in    
Wind  
Wind Speed 11 mph (SW)    
Max Wind Speed 30 mph    
Max Gust Speed 45 mph    
Visibility 7 miles    
Events Rain , Thunderstorm    
Averages and records for this station are not official NWS values.
T = Trace of Precipitation, MM = Missing Value Source: NWS Daily Summary

Daily Weather History Graph

Daily Weather History Graph

Search for Another Location

Airport:

Trip Planner

Search our weather history database for the weather conditions in past years. The results will help you decide how hot, cold, wet, or windy it might be!

Date:

Astronomy

Jun. 25, 2013 Rise Set
Actual Time 5:54 AM EDT 9:04 PM EDT
Civil Twilight 5:20 AM EDT 9:38 PM EDT
Nautical Twilight 4:36 AM EDT 10:22 PM EDT
Astronomical Twilight 3:44 AM EDT 11:14 PM EDT
Moon 10:46 PM EDT (6/25) 8:34 AM EDT (6/25)
Length of Visible Light 16h 18m
Length of Day
15h 10m
Waning Gibbous, 93% of the Moon is Illuminated
Jun 25
Waning Gibbous
Jun 30
Last Quarter
Jul 8
New
Jul 15
First Quarter
Jul 22
Full

Hourly Weather History & Observations

Time (EDT) Temp. Heat Index Dew Point Humidity Pressure Visibility Wind Dir Wind Speed Gust Speed Precip Events Conditions
12:53 AM 80.1 °F 82.1 °F 66.0 °F 62% 29.98 in 10.0 mi SSW 15.0 mph 20.7 mph N/A   Clear
1:53 AM 78.1 °F - 66.0 °F 66% 29.94 in 10.0 mi South 10.4 mph 18.4 mph N/A   Clear
2:53 AM 78.1 °F - 66.0 °F 66% 29.92 in 10.0 mi SSW 15.0 mph 21.9 mph N/A   Clear
3:53 AM 77.0 °F - 64.9 °F 66% 29.93 in 10.0 mi SW 15.0 mph 21.9 mph N/A   Clear
4:53 AM 75.9 °F - 64.9 °F 69% 29.93 in 10.0 mi WSW 11.5 mph - N/A   Clear
5:53 AM 75.0 °F - 64.0 °F 69% 29.94 in 10.0 mi SW 6.9 mph - N/A   Overcast
6:53 AM 73.9 °F - 66.9 °F 79% 29.96 in 10.0 mi WSW 9.2 mph - N/A   Mostly Cloudy
7:53 AM 73.9 °F - 66.9 °F 79% 29.97 in 10.0 mi WSW 9.2 mph - N/A   Mostly Cloudy
8:53 AM 77.0 °F - 68.0 °F 74% 29.98 in 10.0 mi WSW 8.1 mph - N/A   Scattered Clouds
9:53 AM 75.0 °F - 70.0 °F 84% 29.98 in 8.0 mi WNW 8.1 mph - N/A   Mostly Cloudy
10:16 AM 78.8 °F - 69.8 °F 74% 29.99 in 10.0 mi West 12.7 mph - N/A   Scattered Clouds
10:53 AM 78.1 °F - 70.0 °F 76% 29.97 in 7.0 mi West 9.2 mph - N/A   Clear
11:53 AM 81.0 °F 84.4 °F 70.0 °F 69% 29.94 in 8.0 mi WSW 9.2 mph - N/A   Clear
12:53 PM 89.1 °F 92.1 °F 66.9 °F 48% 29.91 in 10.0 mi WSW 12.7 mph - N/A   Clear
1:53 PM 86.0 °F 90.1 °F 69.1 °F 57% 29.91 in 10.0 mi WSW 12.7 mph 20.7 mph N/A   Scattered Clouds
2:53 PM 84.0 °F 89.0 °F 71.1 °F 65% 29.90 in 10.0 mi West 6.9 mph 19.6 mph N/A   Mostly Cloudy
3:38 PM 77.0 °F - 71.6 °F 83% 29.92 in 1.2 mi West 29.9 mph 44.9 mph 0.08 in Rain Rain
3:45 PM 73.4 °F - 66.2 °F 78% 29.92 in 0.2 mi WSW 21.9 mph 44.9 mph 0.31 in Rain Heavy Rain
3:53 PM 73.0 °F - 68.0 °F 84% 29.89 in 0.8 mi Calm Calm - 0.38 in Rain Light Rain
3:56 PM 73.4 °F - 69.8 °F 88% 29.90 in 2.0 mi Calm Calm - 0.00 in Rain Light Rain
4:03 PM 75.2 °F - 69.8 °F 83% 29.90 in 7.0 mi WSW 8.1 mph - 0.01 in Rain Light Rain
4:53 PM 73.0 °F - 66.0 °F 79% 29.87 in 10.0 mi South 12.7 mph 17.3 mph 0.07 in   Partly Cloudy
5:53 PM 77.0 °F - 69.1 °F 76% 29.83 in 10.0 mi South 8.1 mph - N/A   Clear
6:53 PM 79.0 °F - 69.1 °F 72% 29.85 in 10.0 mi SSE 6.9 mph - N/A   Mostly Cloudy
7:47 PM 73.4 °F - 69.8 °F 88% 29.84 in 1.8 mi SE 10.4 mph - 0.11 in Rain Heavy Rain
7:53 PM 73.9 °F - 69.1 °F 85% 29.87 in 1.8 mi SSW 9.2 mph - 0.15 in Rain , Thunderstorm Light Thunderstorms and Rain
8:06 PM 71.6 °F - 69.8 °F 94% 29.88 in 1.0 mi Calm Calm - 0.32 in Rain , Thunderstorm Thunderstorms and Rain
8:10 PM 71.6 °F - 69.8 °F 94% 29.88 in 2.5 mi Calm Calm - 0.33 in Rain , Thunderstorm Light Thunderstorms and Rain
8:17 PM 71.6 °F - 69.8 °F 94% 29.89 in 4.0 mi NW 4.6 mph 16.1 mph 0.36 in Rain , Thunderstorm Heavy Thunderstorms and Rain
8:37 PM 71.6 °F - 68.0 °F 88% 29.86 in 1.8 mi SSW 8.1 mph - 0.44 in Rain , Thunderstorm Heavy Thunderstorms and Rain
8:46 PM 71.6 °F - 68.0 °F 88% 29.86 in 3.0 mi East 4.6 mph - 0.46 in Rain , Thunderstorm Light Thunderstorms and Rain
8:53 PM 71.1 °F - 68.0 °F 90% 29.87 in 9.0 mi South 5.8 mph - 0.46 in Rain , Thunderstorm Light Thunderstorms and Rain
9:53 PM 70.0 °F - 66.9 °F 90% 29.87 in 10.0 mi SE 8.1 mph - 0.02 in Thunderstorm Thunderstorm
10:53 PM 73.0 °F - 64.0 °F 73% 29.87 in 10.0 mi Variable 6.9 mph - 0.00 in Rain , Thunderstorm Light Thunderstorms and Rain
11:53 PM 70.0 °F - 66.9 °F 90% 29.88 in 10.0 mi Calm Calm - 0.05 in Rain , Thunderstorm Light Thunderstorms and Rain